Regional Weather Roundup
Issued by NWS

Home | Current Version | Previous Version | Text Only | Print | Product List | Glossary On
Versions: 1 2 3 4 5 6 7 8 9 10 11 12 13 14 15 16 17 18 19 20 21 22 23 24 25 26 27 28 29 30 31 32 33 34 35 36 37 38 39 40 41 42 43 44 45 46 47 48 49 50
857
ASUS44 KBMX 041010
RWRAL

ALABAMA REGIONAL WEATHER ROUNDUP
NATIONAL WEATHER SERVICE BIRMINGHAM AL
400 AM CST SUN DEC 04 2016

NOTE: "FAIR" INDICATES FEW OR NO CLOUDS BELOW 12,000 FEET
WITH NO SIGNIFICANT WEATHER AND/OR OBSTRUCTIONS TO VISIBILITY.

THE REMARK "TC" DENOTES TEMPERATURE IN DEGREES CELSIUS.

ALZ001>011-014-016>018-020-041100-
NORTH ALABAMA

CITY           SKY/WX    TMP DP  RH WIND       PRES   REMARKS
MUSCLE SHOALS  HVY RAIN  45  42  89 E12G17    30.08F FOG
HUNTSVILLE     LGT RAIN  45  43  93 E7        30.11R
DECATUR        LGT RAIN  44  44 100 E5        30.12F
HALEYVILLE     LGT RAIN  43  42  97 NE5       30.07F
GADSDEN        LGT RAIN  45  43  93 E13       30.09F
$$

ALZ012-013-022-023-030>036-040>044-041100-
WEST CENTRAL ALABAMA

CITY           SKY/WX    TMP DP  RH WIND       PRES   REMARKS
TUSCALOOSA     LGT RAIN  46  45  96 E6        30.02F
$$

ALZ015-024>027-033>036-040>044-041100-
CENTRAL ALABAMA

CITY           SKY/WX    TMP DP  RH WIND       PRES   REMARKS
BIRMINGHAM     RAIN      45  43  93 NE9       30.07S FOG
MONTGOMERY     LGT RAIN  54  38  54 E8        30.03F
SHELBY CO ARPT LGT RAIN  46  45  96 E6        30.03F
MAXWELL AFB    LGT RAIN  53  40  60 E7        30.02F
GREENVILLE     LGT RAIN  53  46  77 S6        29.99F
$$

ALZ019-021-028-029-037-038-045>048-041100-
EAST CENTRAL ALABAMA

CITY           SKY/WX    TMP DP  RH WIND       PRES   REMARKS
ANNISTON       LGT RAIN  47  43  86 NE6       30.08F
ALEXANDER CITY CLOUDY    51  46  84 E6        30.05F
AUBURN         CLOUDY    52  39  61 E8        30.07F
$$

ALZ051>064-041100-
SOUTHWEST ALABAMA

CITY           SKY/WX    TMP DP  RH WIND       PRES   REMARKS
MOBILE         CLOUDY    57  46  66 E10       29.95F
BROOKLEY FIELD CLOUDY    60  52  74 NE6       29.96F
EVERGREEN      RAIN      52  48  86 E3        29.99F
$$

ALZ049-050-065>069-041100-
SOUTHEAST ALABAMA

CITY           SKY/WX    TMP DP  RH WIND       PRES   REMARKS
DOTHAN         CLOUDY    56  49  77 SE12      30.06F
OZARK          CLOUDY    57  46  68 SE8       30.02F
TROY           CLOUDY    57  46  66 SE8       30.02F
EUFAULA        CLOUDY    58  46  64 E8        30.05S
$$




USA.gov is the U.S. government's official web portal to all federal, state and local government web resources and services.